RH
33 32 30 28 26 24 22 21 19 18 18 17 18 18 19 21 22 24 25 27 28 29 30 30 31 33 33 33 34 34 33 33 33 33 32 32 30 29 28 27 27 27
34 36 36 36 34 32 30 28 26 24 22 20 19 19 18 18 18 18 19 20 21 21 22 23 24 25 26 26 27 27 27 27 27 27 27 26 26 25 25 24 23 23
28 31 34 37 38 39 37 36 34 32 29 27 25 23 22 21 21 20 19 19 19 19 19 19 19 20 20 21 22 22 23 24 24 24 25 25 25 25 25 24 23 22
22 24 27 30 33 36 38 39 38 38 36 34 32 30 28 26 24 23 22 22 21 21 20 19 19 19 18 18 18 19 19 20 20 20 21 22 22 22 22 22 21 21
22 22 23 25 27 29 31 34 36 37 38 37 37 35 34 32 30 28 26 25 24 23 22 22 22 21 21 20 20 20 20 20 19 19 19 19 18 18 18 17 17 17
24 24 23 24 25 26 28 30 32 34 35 36 37 37 36 35 34 32 31 30 28 27 26 25 24 23 23 23 22 22 22 22 22 21 21 21 20 20 19 18 18 17
27 26 26 26 26 27 28 29 31 32 34 34 35 35 36 36 35 34 33 32 31 30 29 28 27 26 25 24 24 24 23 23 23 23 22 22 22 22 21 21 20 20
30 29 29 29 28 29 29 29 30 30 31 33 33 34 34 34 34 34 33 33 32 31 30 29 29 28 27 26 25 25 24 23 23 22 22 22 21 21 21 21 20 19
30 30 30 30 30 30 30 30 29 29 30 31 32 33 33 34 34 34 34 34 33 33 32 31 30 29 29 28 27 26 25 25 24 23 23 22 21 21 20 20 19 18
27 28 29 30 30 31 30 30 30 29 29 30 31 32 33 33 34 34 33 33 33 33 32 32 31 31 30 29 28 28 27 26 25 24 24 23 23 22 21 21 20 19
23 24 26 27 28 29 30 30 30 30 30 31 31 32 32 32 33 32 32 32 32 32 32 32 32 31 31 31 30 30 29 28 27 26 25 25 24 24 23 23 22 21
21 21 22 23 24 25 26 27 28 29 30 30 31 31 31 31 31 31 31 32 32 32 31 32 32 32 32 32 32 32 32 31 30 29 28 27 26 26 26 25 24 24
21 20 20 20 21 21 22 23 24 24 26 27 28 29 29 29 29 29 30 30 30 31 31 30 31 31 31 32 33 34 34 34 33 32 31 30 29 29 28 28 27 26
24 23 22 21 20 20 20 20 20 20 21 22 23 24 25 26 27 28 28 29 29 29 29 29 29 29 29 30 31 32 33 33 33 33 32 32 31 31 30 30 29 28
26 25 24 24 23 22 21 21 20 20 20 20 20 20 21 21 22 23 24 25 26 27 27 28 28 28 28 28 29 29 30 31 31 31 31 31 31 31 31 31 30 29
27 27 26 26 25 24 24 23 22 21 21 20 20 20 20 20 20 20 21 21 22 22 23 24 24 25 25 26 26 27 27 28 28 28 29 29 29 30 30 31 31 30
25 25 26 26 26 26 25 25 24 23 22 22 21 20 20 20 20 20 20 20 20 20 20 21 20 21 21 22 23 23 24 24 24 24 25 25 26 26 27 27 28 28
19 20 21 22 23 24 25 25 25 25 24 23 23 22 21 21 21 21 21 21 21 21 21 21 20 20 20 20 20 21 21 22 22 22 23 23 23 24 24 24 24 24
16 16 16 17 18 19 20 21 21 22 23 23 23 23 22 22 22 22 22 21 21 21 21 21 20 20 20 20 20 20 21 21 21 22 22 22 23 23 23 23 23 23
16 16 15 15 15 15 15 16 17 17 18 18 19 19 19 20 20 21 21 21 21 22 22 22 22 21 20 20 20 20 20 21 21 22 23 23 23 23 24 24 24 24
17 17 16 16 15 15 15 14 14 14 14 15 15 15 16 16 16 17 17 17 18 19 20 21 22 22 22 21 21 21 21 21 21 22 23 24 24 24 25 25 25 26
15 15 15 15 15 15 15 14 14 14 13 13 14 14 14 14 14 14 15 15 15 15 16 17 18 18 19 20 20 20 20 20 21 22 23 24 25 26 26 27 27 27
12 12 12 13 13 13 13 13 13 14 13 13 14 13 13 13 13 13 14 14 14 14 14 15 15 16 16 16 17 17 17 18 18 19 20 21 22 24 25 26 26 27
11 11 11 11 11 11 11 11 12 12 12 12 12 13 13 13 13 13 13 13 13 12 13 13 14 14 14 15 15 15 15 15 15 16 17 18 19 20 21 22 22 22
11 11 11 11 11 11 11 11 11 11 11 11 11 11 11 11 11 12 12 12 12 11 11 12 12 12 12 12 13 13 13 13 13 14 15 15 16 17 17 18 18 19
9 9 9 10 11 11 11 11 11 11 11 11 10 10 10 10 10 10 10 10 10 10 10 10 11 11 11 11 11 11 11 11 11 12 13 13 13 14 14 15 16 17
Wind_Speed
119 119 119 119 120 120 121 122 122 123 123 124 125 126 127 127 128 129 130 131 132 132 133 133 134 134 134 135 135 135 136 136 136 136 136 136 136 136 136 136 136 136
119 119 119 119 119 119 119 120 120 120 120 121 121 122 123 124 125 126 127 128 129 130 131 131 132 133 133 134 134 134 135 135 135 136 136 136 136 136 136 136 136 136
117 119 119 120 120 119 119 119 119 119 118 118 119 119 120 121 121 122 123 124 125 126 127 128 129 130 130 131 131 132 132 133 134 134 134 135 135 135 135 136 136 135
115 116 118 119 120 120 120 120 119 119 118 118 118 118 118 118 119 119 120 121 122 123 123 124 125 126 127 127 128 128 129 130 130 131 131 132 132 133 133 133 133 133
113 114 116 117 118 119 119 119 120 119 119 118 118 118 117 117 117 117 118 118 119 119 120 121 122 123 123 124 124 125 125 126 127 127 128 128 129 129 130 130 130 129
112 113 114 115 116 116 117 118 118 118 119 118 118 118 118 117 117 117 117 117 118 118 118 119 120 121 121 122 122 122 123 124 124 125 125 126 126 127 127 127 127 127
110 111 112 113 114 115 116 117 117 117 118 118 118 118 118 118 118 118 118 118 118 118 118 118 119 120 120 120 121 121 122 122 123 123 124 124 125 125 126 126 125 125
108 109 110 111 113 114 115 116 116 117 117 117 117 117 118 117 117 117 117 117 117 117 118 118 118 119 119 120 120 120 121 121 122 122 122 123 123 123 124 124 124 124
107 108 110 111 112 113 114 115 116 116 117 117 117 117 117 117 117 117 117 117 117 117 117 117 118 118 119 119 119 120 120 120 120 121 121 121 121 122 122 122 122 122
106 107 108 110 111 112 113 114 115 115 116 116 116 116 117 117 117 117 117 117 117 118 118 118 118 119 119 119 119 119 120 120 120 120 120 120 120 120 121 121 121 120
105 106 107 109 110 111 112 113 114 114 115 115 116 116 117 117 117 118 118 118 118 118 118 119 119 119 119 120 120 120 120 120 120 120 120 120 120 120 121 121 120 120
105 106 107 108 108 110 111 111 112 113 114 114 115 116 117 117 117 118 118 118 119 119 119 119 119 119 120 120 120 120 121 121 121 121 121 121 121 121 121 121 121 121
105 106 107 108 108 109 110 110 111 112 112 113 114 115 116 116 117 117 118 118 119 119 119 119 119 119 119 120 120 120 120 121 121 121 121 121 121 121 121 121 121 121
105 106 107 108 109 109 110 111 111 111 112 112 112 113 114 115 115 116 117 117 118 118 119 119 119 119 119 119 120 120 120 120 121 121 121 121 121 122 122 122 122 121
105 106 107 108 109 109 110 111 111 112 112 112 112 112 113 113 114 114 115 116 116 117 118 118 118 119 119 119 119 119 120 120 120 121 121 121 121 121 122 122 122 122
105 105 106 107 108 109 110 110 111 111 112 112 113 113 113 113 114 114 114 115 115 116 117 117 117 118 118 118 119 119 120 120 120 120 120 121 121 121 122 122 122 122
104 105 106 107 108 108 109 110 110 111 111 112 112 112 113 113 113 114 114 115 116 116 117 117 117 117 118 118 119 119 119 120 120 120 120 121 121 121 121 121 122 122
103 104 105 105 106 107 108 109 110 110 111 111 112 112 112 113 113 113 114 114 115 116 117 117 118 118 118 118 119 119 119 120 120 120 120 120 121 121 121 122 122 122
103 103 104 104 105 106 107 108 109 109 110 111 111 112 112 113 113 113 113 114 114 115 115 116 117 117 117 118 118 119 119 120 120 120 120 120 121 121 121 122 122 122
104 104 104 105 105 106 106 107 108 108 109 109 110 111 111 112 112 113 113 113 114 114 115 115 116 116 116 116 116 117 117 118 118 118 119 119 120 120 120 121 121 122
106 106 106 106 107 107 107 107 107 108 108 108 109 110 111 111 111 112 112 112 113 113 113 114 115 116 116 116 116 116 116 116 116 116 117 117 118 118 119 119 119 120
107 108 108 108 109 109 109 108 108 108 109 109 109 110 110 110 111 111 111 112 112 112 112 113 114 114 115 115 116 116 116 115 115 115 115 116 116 117 117 118 118 119
107 107 108 108 109 109 109 110 110 110 110 110 111 111 111 111 111 111 111 111 112 112 112 112 113 113 114 114 115 115 115 115 115 115 115 115 115 116 116 117 118 119
106 106 107 108 108 109 109 109 110 111 111 111 112 112 112 112 112 112 112 112 112 112 112 112 113 113 114 114 114 115 115 115 114 114 114 114 115 115 116 117 117 118
105 105 106 106 107 108 108 109 109 110 110 111 111 111 112 112 113 113 113 113 113 113 113 113 113 114 114 114 114 115 115 115 114 114 114 114 115 115 116 116 116 117
102 103 103 104 105 106 107 108 109 109 110 110 110 111 111 111 112 112 113 113 114 114 114 114 114 114 115 115 115 115 115 115 114 114 114 115 115 115 115 115 116 116
Wind_Direction
255 255 255 255 255 256 256 256 256 256 256 257 257 257 257 257 257 258 258 258 259 259 259 260 260 261 261 262 262 262 263 263 264 264 265 265 265 265 265 265 265 265
255 256 256 256 256 256 256 256 256 256 257 257 257 257 257 258 258 258 258 259 259 259 260 260 260 261 261 261 262 262 263 263 263 264 264 265 265 265 265 265 265 265
255 255 255 256 256 256 257 257 257 257 257 257 257 257 257 257 257 258 258 258 259 259 260 260 260 260 261 261 261 262 262 262 263 263 264 264 264 265 265 265 266 266
254 254 255 255 255 256 256 256 257 257 257 257 257 257 257 257 257 257 257 258 258 259 259 259 260 260 260 261 261 261 262 262 262 263 263 263 264 264 264 265 265 266
255 255 255 255 255 255 256 256 256 257 257 257 258 258 258 258 258 258 258 258 258 258 259 259 259 260 260 260 261 261 261 262 262 262 263 263 264 264 264 265 265 265
256 256 256 256 256 256 256 256 257 257 257 257 257 258 258 258 258 258 258 258 259 259 259 259 259 260 260 260 260 261 261 261 262 262 262 263 263 264 264 265 265 265
256 256 256 257 257 257 257 257 257 257 257 257 257 258 258 258 258 258 259 259 259 259 259 259 259 260 260 260 260 260 260 261 261 261 261 262 262 263 263 264 264 264
255 256 256 256 256 256 257 257 257 257 257 257 257 257 258 258 258 259 259 259 259 259 260 260 260 260 260 260 260 260 260 260 260 261 261 261 262 262 262 263 263 264
255 255 255 256 256 256 256 257 257 257 257 257 258 258 258 258 258 258 259 259 259 259 259 259 260 260 260 260 261 261 261 261 261 261 261 262 262 262 263 263 263 264
255 255 255 255 255 256 256 256 257 257 257 258 258 258 258 258 258 258 258 259 259 259 259 259 259 259 260 260 260 261 261 261 261 261 262 262 262 263 263 263 264 264
256 256 255 255 255 255 256 256 256 256 257 257 257 258 258 258 258 259 259 259 259 259 259 259 259 260 260 260 260 260 261 261 261 261 262 262 262 263 263 263 264 264
257 257 257 256 256 256 256 256 256 256 256 256 256 257 257 257 258 258 259 259 259 259 259 259 260 260 260 260 261 261 261 261 262 262 262 262 263 263 263 263 264 264
257 257 257 257 257 257 257 257 257 256 256 256 256 256 257 257 257 258 258 258 259 259 259 259 259 260 260 260 260 261 261 261 262 262 262 263 263 263 263 264 264 264
257 258 258 258 258 258 258 258 258 258 258 257 257 257 257 257 257 257 258 258 258 259 259 259 259 259 260 260 260 260 261 261 261 262 262 262 263 263 263 264 264 264
258 258 258 258 258 259 259 259 259 259 259 258 258 258 258 258 258 258 258 258 258 259 259 259 259 260 260 260 260 260 260 261 261 261 261 262 262 263 263 263 264 264
258 258 258 258 259 259 259 259 259 259 259 259 259 259 259 259 259 259 259 259 259 259 259 259 259 260 260 260 260 261 261 261 261 261 261 262 262 262 263 263 263 264
258 258 258 258 258 259 259 259 260 260 260 260 260 260 260 259 259 259 259 259 259 260 260 260 260 260 260 260 260 260 260 261 261 261 262 262 262 262 262 263 263 263
258 258 258 258 259 259 259 259 259 260 260 260 260 260 260 260 260 260 260 260 260 260 260 260 260 260 260 260 260 260 260 261 261 261 261 262 262 262 263 263 263 263
260 260 259 259 259 259 259 259 259 259 260 260 260 260 260 260 260 260 260 260 260 260 260 261 261 261 260 260 260 260 261 261 261 261 262 262 262 262 263 263 263 264
262 261 261 260 260 260 259 259 259 260 260 260 260 260 260 260 260 260 260 260 260 260 261 261 261 261 261 261 261 261 261 261 261 262 262 262 263 263 263 263 264 264
262 262 262 262 262 261 261 261 260 260 260 260 260 260 260 261 261 261 261 261 261 260 260 261 261 261 262 262 262 262 262 262 262 262 262 262 263 263 263 264 264 264
262 262 262 262 262 262 262 262 262 262 262 262 261 261 261 261 261 261 261 261 261 261 261 261 261 261 261 262 262 262 262 262 262 262 262 262 262 263 263 263 263 264
262 262 262 262 262 262 262 263 263 263 263 263 263 263 263 262 262 262 262 262 262 262 261 261 261 261 261 261 261 262 262 262 262 262 262 262 262 262 262 262 262 262
262 263 263 263 263 263 263 263 263 263 263 263 263 263 263 263 263 263 263 263 262 262 262 262 261 261 261 261 261 261 261 261 261 261 261 261 261 262 262 262 262 262
262 263 263 263 263 264 264 263 263 263 263 263 263 262 262 262 262 262 263 263 263 262 262 262 262 262 262 261 261 261 261 261 261 261 261 261 261 261 261 261 262 262
262 262 262 262 262 263 263 263 263 263 263 263 263 263 262 262 262 262 262 262 262 262 262 262 262 262 262 262 262 262 262 261 261 261 261 261 261 261 261 261 261 261